Weather History for Brookings, SD

Change the Weather History Date:

Tuesday, January 1, 2013

  Actual Average Record
Temperature  
Mean Temperature 14 °F -  
Max Temperature 21 °F 23 °F 50 °F (1998)
Min Temperature 6 °F 8 °F -16 °F (2001)
Degree Days  
Heating Degree Days 52    
Moisture  
Dew Point 12 °F    
Average Humidity 93    
Maximum Humidity 100    
Minimum Humidity 79    
Precipitation  
Precipitation 0.00 in - - ()
Sea Level Pressure  
Sea Level Pressure 30.11 in    
Wind  
Wind Speed 6 mph (South)    
Max Wind Speed 14 mph    
Max Gust Speed 18 mph    
Visibility 7 miles    
Events      
Averages and records for this station are not official NWS values.
T = Trace of Precipitation, MM = Missing Value Source: NWS Daily Summary

Daily Weather History Graph

Daily Weather History Graph

Search for Another Location

Airport:

Trip Planner

Search our weather history database for the weather conditions in past years. The results will help you decide how hot, cold, wet, or windy it might be!

Date:

Astronomy

Jan. 01, 2013 Rise Set
Actual Time 8:03 AM CST 4:59 PM CST
Civil Twilight 7:30 AM CST 5:32 PM CST
Nautical Twilight 6:53 AM CST 6:08 PM CST
Astronomical Twilight 6:18 AM CST 6:44 PM CST
Moon 9:42 PM CST (1/1) 10:05 AM CST (1/1)
Length of Visible Light 10h 02m
Length of Day
8h 56m
Waning Gibbous, 83% of the Moon is Illuminated
Jan 1
Waning Gibbous
Jan 4
Last Quarter
Jan 11
New
Jan 18
First Quarter
Jan 26
Full

Hourly Weather History & Observations

Time (CST) Temp. Windchill Dew Point Humidity Pressure Visibility Wind Dir Wind Speed Gust Speed Precip Events Conditions
12:15 AM 6.8 °F -0.1 °F 3.2 °F 85% 30.20 in 10.0 mi SSE 3.5 mph - N/A   Overcast
12:35 AM 6.8 °F - 3.2 °F 85% 30.20 in 10.0 mi Calm Calm - N/A   Overcast
12:55 AM 8.6 °F 2.0 °F 3.2 °F 79% 30.20 in 10.0 mi ESE 3.5 mph - N/A   Overcast
1:15 AM 8.6 °F 0.1 °F 3.2 °F 79% 30.20 in 10.0 mi SE 4.6 mph - N/A   Overcast
1:35 AM 8.6 °F 0.1 °F 5.0 °F 85% 30.21 in 10.0 mi SSE 4.6 mph - N/A   Overcast
1:55 AM 8.6 °F -1.3 °F 3.2 °F 79% 30.21 in 10.0 mi SSE 5.8 mph - N/A   Overcast
2:15 AM 8.6 °F -2.6 °F 5.0 °F 85% 30.20 in 10.0 mi SSE 6.9 mph - N/A   Overcast
2:35 AM 8.6 °F 0.1 °F 6.8 °F 92% 30.20 in 10.0 mi South 4.6 mph - N/A   Overcast
2:55 AM 8.6 °F -1.3 °F 6.8 °F 92% 30.20 in 10.0 mi SSE 5.8 mph - N/A   Overcast
3:15 AM 8.6 °F -1.3 °F 6.8 °F 92% 30.20 in 10.0 mi South 5.8 mph - N/A   Overcast
3:35 AM 10.4 °F -0.4 °F 6.8 °F 85% 30.20 in 10.0 mi South 6.9 mph - N/A   Overcast
4:15 AM 10.4 °F 4.0 °F 6.8 °F 85% 30.20 in 10.0 mi SSE 3.5 mph - N/A   Overcast
4:35 AM 10.4 °F 2.2 °F 6.8 °F 85% 30.19 in 10.0 mi SSE 4.6 mph - N/A   Overcast
4:55 AM 10.4 °F 2.2 °F 6.8 °F 85% 30.19 in 10.0 mi SSE 4.6 mph - N/A   Overcast
5:15 AM 10.4 °F -0.4 °F 8.6 °F 92% 30.19 in 10.0 mi South 6.9 mph - N/A   Overcast
5:35 AM 10.4 °F -3.3 °F 8.6 °F 92% 30.18 in 10.0 mi South 10.4 mph - N/A   Overcast
6:15 AM 12.2 °F 2.9 °F 8.6 °F 85% 30.17 in 10.0 mi South 5.8 mph - N/A   Overcast
6:35 AM 12.2 °F 2.9 °F 10.4 °F 92% 30.17 in 10.0 mi South 5.8 mph - N/A   Overcast
6:55 AM 12.2 °F 2.9 °F 10.4 °F 92% 30.17 in 10.0 mi South 5.8 mph - N/A   Overcast
7:15 AM 12.2 °F - 10.4 °F 92% 30.17 in 10.0 mi Calm Calm - N/A   Overcast
7:35 AM 12.2 °F 4.3 °F 10.4 °F 92% 30.17 in 10.0 mi SE 4.6 mph - N/A   Overcast
8:15 AM 14.0 °F 6.5 °F 12.2 °F 93% 30.17 in 10.0 mi SE 4.6 mph - N/A   Overcast
8:35 AM 14.0 °F 6.5 °F 10.4 °F 86% 30.17 in 10.0 mi SE 4.6 mph - N/A   Overcast
8:55 AM 14.0 °F 6.5 °F 10.4 °F 86% 30.17 in 10.0 mi ESE 4.6 mph - N/A   Overcast
9:15 AM 12.2 °F 2.9 °F 12.2 °F 100% 30.17 in 9.0 mi East 5.8 mph - N/A   Overcast
9:35 AM 14.0 °F 8.2 °F 14.0 °F 100% 30.17 in 7.0 mi ESE 3.5 mph - N/A   Overcast
9:55 AM 14.0 °F 6.5 °F 12.2 °F 93% 30.17 in 7.0 mi SE 4.6 mph - N/A   Overcast
10:15 AM 15.8 °F 8.6 °F 14.0 °F 93% 30.17 in 5.0 mi SSE 4.6 mph - N/A   Overcast
10:35 AM 17.6 °F 9.3 °F 15.8 °F 93% 30.17 in 4.0 mi SSE 5.8 mph - N/A   Overcast
10:55 AM 17.6 °F 7.3 °F 17.6 °F 100% 30.16 in 3.0 mi South 8.1 mph - N/A   Overcast
11:15 AM 17.6 °F 7.3 °F 17.6 °F 100% 30.15 in 3.0 mi South 8.1 mph - N/A   Overcast
11:35 AM 17.6 °F 6.4 °F 17.6 °F 100% 30.15 in 3.0 mi South 9.2 mph - N/A   Overcast
12:15 PM 19.4 °F 7.9 °F 17.6 °F 93% 30.13 in 3.0 mi South 10.4 mph - N/A   Overcast
12:35 PM 19.4 °F 7.2 °F 17.6 °F 93% 30.12 in 3.0 mi South 11.5 mph - N/A   Overcast
12:55 PM 19.4 °F 7.9 °F 17.6 °F 93% 30.12 in 3.0 mi South 10.4 mph - N/A   Overcast
1:15 PM 19.4 °F 8.6 °F 19.4 °F 100% 30.10 in 2.5 mi SSW 9.2 mph - N/A   Overcast
1:35 PM 19.4 °F 7.9 °F 19.4 °F 100% 30.09 in 3.0 mi South 10.4 mph 16.1 mph N/A   Overcast
1:55 PM 19.4 °F 6.6 °F 19.4 °F 100% 30.09 in 5.0 mi South 12.7 mph - N/A   Overcast
2:15 PM 19.4 °F 7.2 °F 19.4 °F 100% 30.09 in 4.0 mi South 11.5 mph 18.4 mph N/A   Overcast
2:35 PM 19.4 °F 7.2 °F 19.4 °F 100% 30.09 in 1.8 mi South 11.5 mph - N/A   Overcast
2:55 PM 19.4 °F 7.2 °F 19.4 °F 100% 30.08 in 3.0 mi South 11.5 mph - N/A   Overcast
3:15 PM 19.4 °F 6.0 °F 19.4 °F 100% 30.08 in 3.0 mi South 13.8 mph - N/A   Overcast
3:35 PM 19.4 °F 7.2 °F 19.4 °F 100% 30.08 in 5.0 mi SSW 11.5 mph - N/A   Overcast
4:15 PM 21.2 °F 11.7 °F 19.4 °F 93% 30.07 in 5.0 mi South 8.1 mph - N/A   Overcast
4:35 PM 21.2 °F 9.5 °F 19.4 °F 93% 30.06 in 7.0 mi SSW 11.5 mph - N/A   Overcast
4:55 PM 21.2 °F 10.1 °F 19.4 °F 93% 30.05 in 7.0 mi South 10.4 mph - N/A   Overcast
5:15 PM 21.2 °F 11.7 °F 19.4 °F 93% 30.05 in 7.0 mi SSW 8.1 mph - N/A   Overcast
5:35 PM 21.2 °F 8.9 °F 19.4 °F 93% 30.05 in 8.0 mi SSW 12.7 mph - N/A   Overcast
5:55 PM 21.2 °F 9.5 °F 19.4 °F 93% 30.04 in 8.0 mi South 11.5 mph - N/A   Overcast
6:15 PM 21.2 °F 8.3 °F 19.4 °F 93% 30.03 in 7.0 mi South 13.8 mph - N/A   Overcast
6:35 PM 19.4 °F 9.5 °F 15.8 °F 86% 30.03 in 6.0 mi South 8.1 mph - N/A   Mostly Cloudy
6:55 PM 17.6 °F 9.3 °F 15.8 °F 93% 30.03 in 5.0 mi South 5.8 mph - N/A   Partly Cloudy
7:15 PM 15.8 °F 5.1 °F 14.0 °F 93% 30.02 in 5.0 mi South 8.1 mph - N/A   Clear
7:35 PM 15.8 °F 4.2 °F 14.0 °F 93% 30.01 in 5.0 mi South 9.2 mph - N/A   Clear
7:55 PM 14.0 °F 2.0 °F 12.2 °F 93% 30.01 in 5.0 mi South 9.2 mph - N/A   Clear
8:15 PM 12.2 °F -0.2 °F 12.2 °F 100% 30.01 in 4.0 mi South 9.2 mph - N/A   Clear
8:35 PM 12.2 °F -1.0 °F 10.4 °F 92% 30.00 in 4.0 mi South 10.4 mph - N/A   Clear
8:55 PM 12.2 °F -0.2 °F 10.4 °F 92% 30.00 in 5.0 mi South 9.2 mph - N/A   Clear
9:15 PM 12.2 °F -1.0 °F 12.2 °F 100% 29.99 in 5.0 mi South 10.4 mph - N/A   Clear
9:35 PM 12.2 °F -0.2 °F 10.4 °F 92% 29.99 in 5.0 mi South 9.2 mph - N/A   Clear
9:55 PM 10.4 °F -2.4 °F 10.4 °F 100% 29.98 in 5.0 mi South 9.2 mph - N/A   Clear
10:15 PM 10.4 °F -1.5 °F 10.4 °F 100% 29.98 in 5.0 mi South 8.1 mph - N/A   Clear
10:35 PM 10.4 °F -2.4 °F 10.4 °F 100% 29.97 in 5.0 mi South 9.2 mph - N/A   Clear
10:55 PM 12.2 °F 2.9 °F 8.6 °F 85% 29.98 in 5.0 mi South 5.8 mph - N/A   Clear
11:15 PM 10.4 °F 0.8 °F 6.8 °F 85% 29.97 in 5.0 mi South 5.8 mph - N/A   Clear
11:35 PM 10.4 °F 0.8 °F 8.6 °F 92% 29.97 in 5.0 mi South 5.8 mph - N/A   Clear
11:55 PM 8.6 °F -1.3 °F 8.6 °F 100% 29.97 in 5.0 mi South 5.8 mph - N/A   Clear